Weather History for Corona, CA

Change the Weather History Date:

Sunday, January 19, 2014

  Actual Average (KONT) Record (KONT)
Temperature  
Mean Temperature 56 °F 55 °F  
Max Temperature 81 °F 65 °F 83 °F (2005)
Min Temperature 32 °F 44 °F 34 °F (2002)
Degree Days  
Heating Degree Days 8 11  
Month to date heating degree days 209  
Since 1 July heating degree days 769  
Cooling Degree Days 0 0  
Month to date cooling degree days 0  
Year to date cooling degree days 0  
Growing Degree Days 6 (Base 50)    
Moisture  
Dew Point 22 °F    
Average Humidity 40    
Maximum Humidity 69    
Minimum Humidity 7    
Precipitation  
Precipitation 0.00 in 0.11 in 0.84 in (2010)
Month to date precipitation 2.33  
Year to date precipitation 2.33  
Since 1 July precipitation 6.99  
Snow  
Snow 0.00 in - - ()
Month to date snowfall  
Year to date snowfall  
Since 1 July snowfall  
Snow Depth -    
Sea Level Pressure  
Sea Level Pressure 30.09 in    
Wind  
Wind Speed 1 mph (West)    
Max Wind Speed 8 mph    
Max Gust Speed -    
Visibility 10 miles    
Events      
T = Trace of Precipitation, MM = Missing Value Source: NWS Daily Summary

Daily Weather History Graph

Daily Weather History Graph

Search for Another Location

Airport:

Trip Planner

Search our weather history database for the weather conditions in past years. The results will help you decide how hot, cold, wet, or windy it might be!

Date:

Astronomy

Jan. 19, 2014 Rise Set
Actual Time 6:54 AM PST 5:08 PM PST
Civil Twilight 6:27 AM PST 5:35 PM PST
Nautical Twilight 5:56 AM PST 6:05 PM PST
Astronomical Twilight 5:26 AM PST 6:35 PM PST
Moon 8:38 PM PST (1/19) 8:37 AM PST (1/19)
Length of Visible Light 11h 08m
Length of Day
10h 14m
Waning Gibbous, 89% of the Moon is Illuminated
Jan 19
Waning Gibbous
Jan 23
Last Quarter
Jan 30
New
Feb 6
First Quarter
Feb 14
Full

Hourly Weather History & Observations

Time (PST) Temp. Dew Point Humidity Pressure Visibility Wind Dir Wind Speed Gust Speed Precip Events Conditions
12:56 AM 38.8 °F 24.1 °F 55% 30.06 in 10.0 mi Calm Calm - N/A   Clear
1:56 AM 37.9 °F 25.2 °F 60% 30.07 in 10.0 mi Calm Calm - N/A   Clear
2:56 AM 34.0 °F 23.0 °F 64% 30.08 in 10.0 mi Calm Calm - N/A   Clear
3:56 AM 36.0 °F 23.0 °F 59% 30.07 in 10.0 mi Calm Calm - N/A   Clear
4:56 AM 32.0 °F 23.0 °F 69% 30.08 in 10.0 mi Calm Calm - N/A   Clear
5:56 AM 34.0 °F 23.0 °F 64% 30.09 in 10.0 mi Calm Calm - N/A   Clear
6:56 AM 32.0 °F 22.1 °F 67% 30.11 in 10.0 mi Calm Calm - N/A   Clear
7:56 AM 36.0 °F 25.2 °F 65% 30.12 in 10.0 mi Calm Calm - N/A   Clear
8:56 AM 39.9 °F 27.1 °F 60% 30.14 in 10.0 mi Calm Calm - N/A   Clear
9:56 AM 47.8 °F 30.0 °F 50% 30.15 in 10.0 mi Calm Calm - N/A   Clear
10:56 AM 59.9 °F 28.0 °F 30% 30.13 in 10.0 mi Calm Calm - N/A   Clear
11:56 AM 70.0 °F 23.0 °F 17% 30.09 in 10.0 mi Calm Calm - N/A   Partly Cloudy
12:56 PM 77.9 °F 21.0 °F 12% 30.06 in 10.0 mi Calm Calm - N/A   Clear
1:56 PM 81.0 °F 10.0 °F 7% 30.04 in 10.0 mi Variable 6.9 mph - N/A   Clear
2:56 PM 81.0 °F 12.0 °F 7% 30.03 in 10.0 mi West 8.1 mph - N/A   Clear
3:56 PM 77.9 °F 18.1 °F 11% 30.03 in 10.0 mi West 5.8 mph - N/A   Clear
4:56 PM 72.9 °F 20.1 °F 14% 30.04 in 10.0 mi West 8.1 mph - N/A   Clear
5:56 PM 64.9 °F 21.0 °F 19% 30.06 in 10.0 mi Calm Calm - N/A   Clear
6:56 PM 54.0 °F 20.1 °F 27% 30.08 in 10.0 mi Calm Calm - N/A   Clear
7:56 PM 50.9 °F 22.1 °F 32% 30.09 in 10.0 mi Calm Calm - N/A   Clear
8:56 PM 50.9 °F 24.1 °F 35% 30.10 in 4.0 mi Calm Calm - N/A   Haze
9:56 PM 45.9 °F 23.0 °F 41% 30.12 in 10.0 mi Calm Calm - N/A   Clear
10:56 PM 41.9 °F 23.0 °F 47% 30.12 in 10.0 mi Calm Calm - N/A   Clear
11:56 PM 38.8 °F 24.1 °F 55% 30.12 in 10.0 mi Calm Calm - N/A   Clear